Dewpoint
-6 -3 -4 -5 -5 -4 -5 -4 -2 -3 -4 -2 -2 -2 -4 -6 -7 -6 -7 -6 -5 -4 -4 -5 -5 -4 -4 -4 -4 -4 -6 -5 -4 -5 -5 -5 -5 -5 -5 -5 -5 -3 -2 -4
-4 -3 -6 -6 -4 -5 -4 -2 -1 -2 -3 -1 -1 -1 -6 -8 -7 -7 -6 -5 -5 -5 -5 -4 -4 -4 -4 -4 -4 -5 -4 -3 -3 -4 -3 -4 -4 -4 -4 -5 -6 -5 -4 -4
-3 -5 -7 -5 -4 -3 -4 -1 -1 -0 -1 -1 -1 -1 -6 -7 -5 -5 -5 -5 -6 -6 -5 -5 -5 -5 -4 -4 -4 -3 -3 -3 -2 -2 -3 -3 -3 -3 -4 -4 -5 -5 -5 -4
-5 -7 -7 -4 -4 -4 -2 -4 -1 0 1 2 -1 4 -3 -6 -6 -5 -5 -5 -5 -4 -4 -4 -4 -4 -4 -4 -3 -3 -3 -3 -2 -2 -2 -2 -2 -2 -2 -3 -4 -5 -6 -5
-4 -7 -6 -4 -4 -4 -2 -2 0 1 2 2 1 1 -2 -6 -5 -5 -4 -4 -4 -4 -3 -3 -3 -4 -3 -3 -3 -3 -2 -2 -1 -1 -1 -0 -0 -0 -1 -2 -3 -4 -5 -6
-5 -6 -5 -5 -3 -2 -2 1 2 2 2 4 1 0 -0 -2 -4 -3 -3 -4 -4 -3 -3 -3 -3 -2 -2 -1 -1 -0 0 0 -0 -1 -1 -2 -2 -2 -0 -0 -1 -2 -4 -5
1 -2 -4 -2 -0 -1 0 3 5 4 5 5 2 2 -1 -3 -4 -4 -4 -4 -4 -3 -3 -3 -2 -1 -1 -1 -1 -0 -0 -0 -0 -1 -1 -2 -3 -3 -2 -2 -3 -1 -3 -3
6 5 1 -2 -1 0 1 3 5 7 6 5 2 3 0 -4 -4 -5 -5 -3 -2 -1 -1 -1 -0 0 -0 -0 -0 -1 -0 -1 -1 -1 -1 -3 -3 -4 -5 -5 -5 -3 -2 -4
5 4 1 -1 -1 -1 2 4 2 4 2 4 4 3 -2 -3 -1 -2 -2 -1 -1 -1 -0 -0 -0 -1 -1 -1 -1 -0 -0 -1 -2 -2 -2 -3 -4 -3 -5 -5 -4 -2 -3 -5
3 6 3 2 1 0 0 0 4 4 5 8 6 4 3 1 2 0 -0 -1 -1 -1 -1 -1 -1 0 -0 -1 -1 -1 -1 -2 -2 -2 -2 -3 -4 -5 -5 -5 -4 -4 -6 -7
2 4 4 2 3 3 1 4 3 4 5 8 8 7 1 2 1 1 0 -1 -0 -0 -0 -0 -0 0 0 0 -1 -0 -1 -1 -2 -2 -1 -2 -3 -5 -5 -4 -5 -6 -6 -3
2 3 4 3 2 1 1 3 4 4 6 5 5 6 0 0 -0 -1 -0 0 0 0 1 1 1 1 -2 -3 -1 -1 -3 -2 -1 -0 -1 -2 -4 -5 -5 -5 -5 -6 -7 -7
1 2 4 3 1 2 4 3 3 3 2 5 4 4 -1 -1 -0 -0 1 1 1 1 2 2 1 -0 -1 -2 -2 -2 -1 1 1 1 -3 -4 -5 -6 -7 -7 -8 -8 -8 -6
1 3 3 4 3 4 5 4 3 3 2 5 5 4 1 -0 0 1 2 2 2 2 2 2 -0 -1 0 -0 -0 -1 1 2 1 -1 -2 -6 -7 -8 -9 -8 -7 -7 -6 -5
2 4 4 4 4 4 5 5 4 5 3 4 3 2 1 2 1 2 2 2 2 2 2 1 0 -1 1 -2 -2 -1 2 0 -1 -2 -2 -7 -8 -8 -7 -5 -5 -3 -4 -9
3 4 4 5 4 5 5 4 4 3 3 2 2 1 3 3 3 3 3 3 3 3 2 -1 -1 1 1 -1 0 1 -0 -3 -3 -0 -0 -3 -4 -4 -4 -2 -2 -6 -7 -8
3 2 3 5 4 5 5 3 2 1 1 1 3 1 3 4 4 3 3 2 3 2 0 1 2 2 -0 -1 -0 -1 -3 -4 -2 -1 -1 -1 -2 -2 -5 -5 -6 -6 -8 -8
2 2 2 4 5 7 3 0 0 1 1 1 3 3 3 4 3 3 2 2 2 1 0 1 2 1 1 -1 -1 -3 -4 -4 -3 -3 -2 -2 -2 -2 -6 -8 -9 -9 -10 -12
3 3 4 4 6 4 3 1 1 1 2 3 4 4 4 3 3 2 2 2 2 -1 0 2 1 -0 -2 -1 -2 -3 -3 -4 -2 -6 -7 -7 -6 -5 -6 -7 -9 -12 -13 -14
3 0 1 4 5 6 1 -1 0 2 4 3 3 3 4 4 5 3 3 2 -2 -2 1 1 0 -1 -3 -2 -1 -1 -4 -5 -5 -6 -8 -7 -8 -11 -12 -13 -14 -14 -13 -13
1 2 2 -1 2 1 -0 -1 1 1 1 2 2 2 3 4 3 3 2 -1 -2 -0 0 -1 -2 -3 -2 -1 -1 -4 -9 -8 -5 -5 -6 -11 -14 -15 -15 -14 -13 -13 -14 -14
0 1 3 2 4 5 0 1 3 1 1 1 1 2 4 3 2 1 -1 -3 -2 -3 -2 -4 -4 -2 -3 -3 -5 -6 -7 -6 -7 -9 -11 -16 -16 -14 -13 -12 -12 -14 -12 -11
4 1 2 1 2 -0 -0 1 1 1 1 1 3 4 4 2 1 1 -2 -3 -3 -3 -5 -5 -3 -2 -3 -4 -5 -7 -7 -8 -10 -12 -16 -15 -15 -14 -12 -12 -12 -11 -11 -10
2 0 2 2 1 0 0 0 1 1 2 4 3 2 1 0 -0 -3 -2 -2 -3 -6 -5 -5 -2 -3 -5 -5 -7 -7 -8 -10 -14 -16 -17 -16 -15 -13 -12 -12 -12 -11 -11 -13
3 4 4 3 2 2 1 1 2 3 3 2 1 1 0 -3 -6 -2 -2 -4 -8 -5 -4 -3 -3 -3 -5 -8 -9 -9 -11 -15 -15 -15 -14 -14 -13 -12 -11 -11 -12 -12 -12 -12
3 2 4 4 1 2 2 3 2 2 1 1 0 -1 -5 -6 -4 -1 -4 -5 -5 -4 -3 -3 -6 -7 -8 -9 -9 -10 -15 -15 -13 -13 -12 -11 -10 -10 -11 -11 -12 -11 -12 -12
Wind_Speed
4 6 2 4 2 3 1 2 3 4 3 7 6 8 13 4 19 19 19 22 18 15 10 5 5 14 14 9 8 10 11 12 16 16 17 19 22 23 24 26 26 23 24 27
7 3 2 4 5 3 6 3 4 6 6 3 8 10 7 7 6 20 22 20 16 14 9 9 6 4 4 6 7 8 9 10 13 14 17 19 23 25 27 25 23 26 29 29
5 3 2 5 6 7 3 2 3 6 7 3 5 6 6 4 9 15 14 14 10 5 5 3 1 4 6 7 6 5 6 11 14 16 16 20 24 28 31 32 32 30 29 34
2 2 4 6 3 2 4 3 4 6 4 2 4 3 3 3 2 2 8 12 10 8 7 5 4 4 6 5 7 7 8 12 14 20 22 25 27 30 31 32 33 31 33 30
4 2 4 4 3 3 7 7 8 4 4 3 9 3 6 4 4 6 4 11 10 9 5 2 1 2 2 3 5 7 10 14 16 20 24 29 33 38 37 37 36 36 34 36
2 3 3 1 4 2 6 6 5 4 3 3 3 2 4 5 5 5 6 8 8 6 0 2 2 2 1 1 2 4 5 9 14 20 26 28 33 36 37 38 41 43 38 39
6 5 4 3 5 7 8 6 4 5 5 4 5 4 3 1 8 10 11 9 5 1 3 3 4 4 3 5 7 10 17 24 29 35 33 36 42 36 33 33 30 38 39 31
5 6 7 6 2 2 4 4 4 1 0 5 7 1 2 4 5 8 11 12 8 7 6 3 2 4 4 9 14 18 20 25 29 31 37 40 32 34 36 34 32 33 35 26
5 4 5 4 5 2 4 4 1 5 2 3 5 5 7 4 8 9 5 6 11 8 10 12 11 11 12 15 18 22 26 31 36 39 33 27 31 35 35 31 28 23 28 30
3 4 2 6 5 4 3 1 5 4 2 3 5 6 5 7 11 10 6 5 15 17 12 9 9 5 10 20 27 32 36 37 34 30 29 30 32 33 31 21 15 18 21 18
2 3 7 4 3 2 5 4 4 1 4 3 2 6 4 9 8 9 10 14 12 9 10 12 13 13 19 25 29 28 33 30 30 30 33 31 31 31 24 16 13 15 16 12
3 4 3 5 8 2 2 3 5 3 5 3 3 11 11 6 19 10 10 8 12 13 9 8 14 22 28 30 31 33 32 31 30 32 37 32 29 24 18 15 13 13 12 8
1 2 3 7 6 8 4 7 4 3 2 6 3 5 11 25 7 12 12 15 11 4 10 14 22 29 32 35 30 32 29 28 30 40 36 29 24 17 15 14 14 13 10 11
4 3 6 5 5 3 9 15 11 4 2 5 13 15 18 9 6 9 10 12 14 15 14 21 28 33 30 32 31 30 29 30 39 40 34 20 16 14 14 13 11 9 7 12
3 5 4 7 7 5 15 17 16 9 14 5 8 9 10 3 4 10 13 13 17 14 18 27 30 34 32 31 29 30 27 35 39 36 25 16 16 16 13 9 9 11 13 11
3 4 4 10 6 8 17 14 12 13 13 9 9 14 2 12 12 16 18 24 23 18 27 32 30 30 31 30 27 26 33 36 31 23 17 13 14 15 17 18 21 8 9 13
2 3 2 5 4 4 10 8 6 5 7 7 6 6 5 6 13 19 28 28 24 24 31 35 32 29 28 30 28 32 31 25 17 15 11 10 12 12 13 7 4 8 14 20
5 3 2 3 1 4 9 6 7 6 7 6 3 5 10 9 17 21 22 22 20 30 32 33 29 29 27 30 31 27 16 12 9 7 8 8 7 9 8 10 13 19 23 24
8 5 1 1 3 6 10 10 2 2 8 5 5 8 16 26 27 17 17 14 25 30 29 24 23 23 31 29 24 16 15 13 7 5 4 6 9 13 19 26 25 23 25 26
6 5 3 2 3 6 8 5 7 5 6 9 8 12 15 16 10 11 22 21 25 26 19 17 22 29 27 20 16 13 6 6 8 11 14 17 18 16 17 20 22 23 22 24
3 2 3 2 6 8 9 12 1 4 7 10 22 25 24 7 13 22 17 20 20 15 21 26 29 30 18 16 13 8 3 5 10 16 18 16 19 20 21 20 19 21 22 23
5 3 5 2 3 8 5 4 3 9 16 30 34 28 15 15 13 15 18 20 16 22 26 30 28 13 15 19 7 4 12 18 14 15 19 19 19 19 18 19 20 20 20 22
3 7 5 8 7 5 7 22 25 24 33 29 18 13 13 16 16 21 13 18 21 25 31 24 14 11 13 12 13 13 15 12 15 19 19 20 19 18 19 19 18 19 21 24
4 10 6 7 8 17 26 41 39 31 22 14 14 13 9 11 14 20 19 18 26 29 23 15 11 12 9 12 15 15 16 15 17 18 19 20 20 19 17 16 19 20 21 21
9 8 5 13 22 32 29 28 23 20 9 12 8 13 13 17 25 23 20 25 27 23 19 18 20 12 11 14 17 16 16 16 17 19 21 20 18 16 16 20 17 17 16 18
12 14 7 14 27 22 27 18 15 12 9 5 12 22 27 23 23 19 23 27 25 19 22 16 11 13 15 18 17 17 16 16 18 20 21 18 16 16 18 22 18 14 18 19
Wind_Direction
13 66 75 291 311 270 232 18 333 281 263 356 290 284 278 218 127 114 122 133 128 111 93 51 169 197 198 221 275 299 328 334 336 323 313 305 303 301 294 278 279 268 266 278
28 95 255 308 29 47 43 37 317 287 304 325 304 301 322 123 153 140 135 134 126 112 90 94 113 153 215 256 294 320 336 329 339 328 323 306 298 295 290 288 276 268 268 269
128 221 16 70 24 15 326 152 275 253 321 341 338 352 360 357 124 141 134 131 122 119 115 104 261 285 291 298 295 289 316 325 324 331 310 300 294 293 290 289 282 274 263 260
142 11 49 36 64 43 309 249 284 291 33 304 41 274 286 257 359 85 129 139 127 135 145 171 209 244 268 297 293 290 297 303 321 321 312 309 298 290 298 295 286 274 268 261
261 55 62 52 289 291 256 303 279 294 160 83 345 58 271 80 229 221 93 118 127 132 122 148 208 271 248 277 284 298 297 295 309 317 314 310 309 305 296 293 283 273 260 256
263 87 77 247 293 96 283 309 1 36 92 52 253 144 304 308 280 72 94 128 134 137 280 278 277 256 194 58 56 2 341 335 333 325 322 313 311 305 297 292 288 276 263 257
349 6 324 360 11 351 16 32 3 14 12 228 316 18 259 349 103 139 170 154 147 146 262 231 245 224 228 284 306 328 340 333 325 310 313 312 308 306 301 302 301 294 258 244
35 334 11 347 61 303 330 86 127 225 10 283 328 1 242 187 90 114 133 148 167 122 49 45 161 140 18 350 337 333 316 306 309 311 308 314 308 306 308 307 303 290 253 226
14 297 334 40 320 126 332 29 152 108 10 46 283 287 335 213 76 114 98 358 58 51 63 59 47 5 347 343 335 327 323 320 317 317 317 309 304 304 308 308 301 271 231 204
324 302 311 300 346 25 82 256 30 8 31 292 301 294 240 323 340 350 8 84 84 78 65 42 29 16 339 332 323 320 315 319 324 321 318 313 310 308 307 296 270 230 203 201
32 41 293 345 46 27 353 22 14 153 138 213 264 263 237 318 322 303 79 89 54 42 26 19 5 346 334 330 334 327 328 327 329 327 324 316 308 298 288 267 233 214 224 260
331 125 289 284 294 266 125 104 101 94 321 274 228 272 274 296 342 80 92 53 23 356 353 341 339 339 338 336 331 327 329 328 329 328 324 311 295 277 258 246 240 240 255 306
205 356 357 348 345 12 2 296 123 169 123 234 203 263 328 315 96 63 36 5 354 313 324 336 337 334 335 331 329 327 326 324 323 325 327 303 279 263 255 244 241 249 267 312
150 163 167 203 214 196 287 289 303 174 173 240 255 287 294 327 90 355 344 345 338 323 325 328 338 335 332 331 329 328 325 319 323 325 328 281 255 238 222 224 240 258 279 316
111 206 233 234 238 253 267 281 291 277 259 221 273 271 311 108 299 309 310 331 324 313 322 331 330 333 332 332 328 327 315 320 322 322 320 258 227 217 220 235 235 265 316 310
4 267 171 289 245 237 260 275 264 268 276 262 268 286 236 315 333 333 328 325 315 317 330 330 323 329 324 319 317 314 315 321 323 316 291 255 238 246 247 262 312 347 280 285
225 168 106 265 37 13 300 240 208 220 253 263 259 246 311 307 323 325 320 323 309 324 324 323 318 317 314 320 311 316 322 328 332 323 308 313 313 324 351 337 288 271 287 299
178 108 119 255 18 201 249 280 262 272 259 246 249 259 266 276 311 318 321 311 313 322 318 316 315 310 312 316 317 322 324 340 350 345 343 323 310 321 321 319 312 303 303 306
186 137 183 223 209 283 290 271 225 230 270 186 236 286 316 322 313 307 322 302 312 316 315 310 307 313 320 318 320 318 304 310 305 9 45 359 315 329 318 310 301 307 308 308
65 73 132 177 241 270 235 241 274 301 285 201 293 296 290 307 299 318 323 343 329 318 302 306 313 318 319 319 317 301 330 25 30 9 359 340 323 312 313 310 311 311 310 309
342 339 217 210 243 281 255 262 289 77 279 280 309 297 294 258 273 308 319 337 321 317 316 318 320 322 322 313 313 334 17 30 334 324 316 318 318 316 315 316 316 316 312 312
184 185 229 221 237 268 57 46 131 269 299 311 313 309 281 278 295 318 326 308 308 319 319 322 322 316 319 313 331 292 305 313 319 314 320 322 321 321 320 319 319 317 317 315
240 199 217 186 221 240 286 305 300 302 309 316 312 307 293 319 337 321 316 309 310 325 326 325 315 315 327 315 306 300 297 307 317 321 325 325 324 322 320 320 321 322 320 317
264 246 251 327 261 277 297 296 292 306 310 316 319 334 337 345 330 307 296 315 328 329 324 322 316 300 309 296 298 296 303 317 325 330 332 329 324 322 322 326 324 322 321 325
216 200 229 256 273 280 281 289 307 310 311 336 2 340 358 339 312 292 300 322 334 324 314 309 307 307 325 314 300 301 316 327 335 335 332 329 326 326 331 337 329 328 329 330
219 244 235 260 265 271 284 309 315 315 320 38 15 337 328 314 302 297 317 323 325 315 306 314 336 315 308 302 296 312 322 329 332 330 330 328 331 332 330 335 324 330 329 331
Height
1531 1540 1547 1539 1537 1538 1538 1541 1543 1534 1528 1527 1524 1523 1511 1509 1508 1508 1509 1513 1517 1519 1520 1520 1518 1519 1522 1526 1528 1529 1529 1529 1528 1527 1525 1524 1522 1520 1519 1518 1517 1516 1516 1515
1538 1545 1537 1536 1537 1537 1539 1541 1544 1536 1527 1528 1523 1519 1510 1509 1510 1508 1509 1512 1517 1519 1519 1520 1523 1525 1525 1525 1525 1526 1526 1526 1525 1523 1521 1520 1517 1515 1514 1513 1511 1510 1510 1509
1543 1540 1536 1538 1540 1542 1541 1542 1542 1542 1533 1525 1523 1524 1519 1514 1511 1512 1513 1514 1516 1518 1520 1521 1523 1523 1524 1524 1524 1523 1523 1522 1521 1519 1516 1514 1512 1509 1507 1505 1503 1502 1502 1501
1539 1538 1538 1540 1542 1544 1547 1535 1535 1537 1540 1548 1531 1551 1523 1518 1517 1516 1515 1514 1516 1520 1522 1522 1523 1523 1523 1522 1522 1520 1519 1518 1516 1514 1512 1509 1506 1503 1501 1497 1496 1494 1493 1492
1543 1540 1542 1545 1545 1541 1543 1533 1533 1531 1540 1541 1541 1547 1527 1519 1520 1517 1519 1519 1521 1522 1523 1523 1523 1522 1522 1521 1520 1518 1517 1516 1515 1513 1509 1505 1501 1497 1493 1491 1488 1486 1485 1483
1540 1539 1542 1543 1540 1539 1536 1533 1532 1534 1540 1562 1542 1548 1540 1530 1520 1522 1522 1522 1522 1523 1524 1523 1522 1521 1520 1518 1518 1516 1515 1514 1512 1509 1506 1501 1497 1492 1487 1484 1481 1478 1477 1478
1548 1546 1542 1542 1544 1539 1541 1546 1570 1570 1576 1571 1540 1546 1543 1528 1521 1519 1520 1522 1523 1523 1522 1522 1521 1519 1517 1516 1514 1514 1513 1511 1507 1505 1501 1496 1490 1484 1481 1477 1474 1472 1469 1466
1566 1568 1549 1544 1547 1549 1547 1551 1579 1579 1590 1576 1545 1546 1540 1525 1521 1521 1522 1523 1521 1523 1521 1519 1518 1517 1517 1514 1513 1511 1509 1506 1501 1496 1492 1487 1482 1478 1475 1471 1467 1462 1462 1460
1574 1564 1549 1546 1546 1546 1548 1560 1551 1568 1597 1590 1562 1540 1528 1522 1522 1524 1523 1522 1522 1520 1519 1518 1518 1517 1515 1514 1512 1509 1505 1499 1493 1486 1481 1478 1475 1472 1468 1462 1459 1456 1454 1453
1565 1571 1554 1549 1545 1546 1547 1549 1567 1578 1592 1582 1564 1553 1544 1527 1525 1522 1524 1521 1520 1519 1518 1516 1515 1515 1513 1510 1506 1502 1499 1493 1486 1480 1477 1473 1469 1464 1461 1459 1456 1453 1452 1452
1565 1567 1564 1554 1554 1557 1558 1565 1561 1561 1575 1581 1580 1561 1531 1529 1528 1525 1523 1522 1521 1518 1517 1516 1515 1513 1510 1506 1502 1497 1491 1486 1480 1476 1471 1467 1462 1459 1455 1453 1452 1451 1451 1451
1566 1576 1583 1564 1555 1552 1554 1559 1566 1587 1577 1582 1582 1551 1525 1527 1523 1524 1524 1523 1522 1520 1517 1514 1512 1509 1505 1500 1494 1489 1484 1480 1475 1471 1466 1462 1457 1453 1451 1449 1449 1449 1448 1448
1565 1579 1589 1572 1562 1556 1560 1553 1561 1568 1579 1576 1587 1556 1524 1527 1528 1526 1526 1524 1522 1520 1516 1510 1506 1501 1497 1493 1488 1483 1479 1474 1470 1465 1460 1454 1452 1449 1448 1446 1445 1444 1445 1445
1564 1572 1577 1586 1574 1571 1567 1552 1555 1562 1586 1561 1549 1539 1532 1530 1529 1528 1526 1523 1519 1515 1509 1505 1500 1497 1492 1489 1484 1480 1475 1470 1464 1458 1453 1451 1449 1447 1445 1445 1444 1443 1442 1441
1566 1575 1570 1567 1565 1564 1558 1555 1553 1556 1549 1560 1542 1538 1531 1532 1530 1526 1521 1517 1512 1507 1504 1499 1495 1491 1487 1483 1480 1475 1470 1465 1458 1452 1448 1447 1445 1445 1443 1442 1441 1440 1440 1438
1566 1576 1571 1566 1563 1564 1557 1550 1549 1548 1545 1542 1538 1534 1530 1529 1527 1523 1517 1511 1507 1503 1498 1493 1491 1487 1484 1479 1474 1469 1464 1458 1453 1449 1445 1444 1443 1442 1440 1439 1436 1435 1436 1434
1569 1575 1582 1566 1572 1569 1557 1544 1542 1539 1536 1537 1540 1530 1527 1524 1522 1519 1512 1507 1503 1499 1494 1490 1487 1483 1479 1474 1470 1464 1458 1452 1448 1446 1444 1441 1439 1437 1435 1434 1434 1433 1432 1429
1568 1576 1580 1576 1573 1569 1538 1531 1530 1532 1530 1527 1526 1525 1523 1518 1513 1512 1509 1505 1501 1496 1490 1487 1484 1480 1475 1471 1465 1460 1455 1450 1448 1446 1444 1442 1441 1439 1438 1436 1433 1431 1427 1424
1557 1568 1574 1576 1567 1552 1539 1527 1527 1528 1528 1523 1524 1519 1515 1511 1506 1504 1501 1500 1496 1491 1486 1482 1479 1475 1470 1464 1459 1456 1454 1450 1445 1443 1443 1442 1440 1438 1436 1433 1429 1425 1422 1418
1560 1562 1571 1571 1569 1552 1531 1523 1520 1520 1528 1517 1517 1513 1509 1506 1504 1496 1496 1492 1491 1487 1482 1478 1473 1469 1465 1461 1455 1452 1450 1450 1446 1444 1443 1441 1439 1435 1432 1428 1424 1421 1417 1413
1572 1569 1572 1583 1571 1553 1523 1520 1519 1538 1522 1512 1512 1507 1502 1502 1500 1495 1490 1487 1483 1479 1476 1472 1467 1464 1461 1458 1453 1451 1451 1448 1446 1443 1441 1438 1435 1431 1427 1424 1420 1416 1412 1408
1558 1570 1564 1562 1556 1543 1519 1519 1528 1519 1509 1508 1501 1499 1497 1494 1491 1490 1487 1484 1480 1476 1471 1466 1460 1459 1458 1455 1452 1451 1450 1446 1443 1440 1437 1434 1431 1427 1424 1420 1416 1412 1408 1404
1550 1547 1547 1544 1533 1516 1515 1515 1513 1510 1505 1499 1498 1496 1493 1493 1489 1488 1483 1480 1473 1471 1466 1462 1457 1454 1452 1454 1453 1448 1446 1443 1440 1437 1434 1430 1427 1424 1420 1416 1412 1408 1405 1400
1539 1534 1533 1534 1514 1511 1512 1509 1507 1504 1500 1496 1494 1492 1490 1485 1487 1484 1480 1476 1468 1465 1460 1457 1455 1452 1448 1449 1449 1446 1443 1441 1437 1433 1430 1427 1423 1420 1416 1413 1409 1405 1401 1396
1532 1530 1525 1520 1512 1506 1507 1503 1502 1499 1497 1494 1492 1491 1487 1485 1481 1478 1475 1471 1464 1461 1458 1455 1452 1450 1449 1447 1446 1443 1440 1437 1434 1430 1427 1424 1420 1417 1414 1410 1406 1402 1399 1394
1520 1517 1520 1506 1502 1502 1496 1498 1496 1495 1493 1487 1488 1489 1486 1479 1474 1473 1471 1466 1460 1457 1455 1453 1451 1449 1447 1445 1442 1439 1437 1434 1431 1428 1424 1421 1417 1414 1411 1407 1403 1400 1396 1391